Regional Weather Roundup
Issued by NWS

Home | Current Version | Previous Version | Graphics & Text | Print | Product List | Glossary On
Versions: 1 2 3 4 5 6 7 8 9 10 11 12 13 14 15 16 17 18 19 20 21 22 23 24 25 26 27 28 29 30 31 32 33 34 35 36 37 38 39 40 41 42 43 44 45 46 47 48 49
000
ASUS45 KBOU 171307
RWRCO

WEATHER ROUNDUP FOR COLORADO
NATIONAL WEATHER SERVICE DENVER/BOULDER CO
600 AM MST WED DEC 17 2014

NOTE: "FAIR" INDICATES FEW OR NO CLOUDS BELOW 12000 FEET WITH NO
SIGNIFICANT WEATHER AND/OR OBSTRUCTIONS TO VISIBILITY.

COZ001>005-013-030-031-171400-
...NORTHWEST COLORADO...

CITY           SKY/WX    TMP DP  RH WIND       PRES   REMARKS
CRAIG          MOCLDY    18  16  92 W5        30.01S WCI  11
HAYDEN         CLOUDY    27  23  86 SE10      29.99F WCI  17
MEEKER         LGT SNOW  27  25  93 CALM      30.01R FOG
MOUNT WERNER   NOT AVBL
STEAMBOAT SPGS CLOUDY    22  21  93 CALM      30.00F
WALDEN         MOCLDY    14   9  79 CALM      29.97S
$$

COZ006>008-011-171400-
...WEST CENTRAL VALLEYS...

CITY           SKY/WX    TMP DP  RH WIND       PRES   REMARKS
GRAND JUNCTION CLOUDY    31  29  92 CALM      30.02R
MONTROSE       CLOUDY    31  26  82 E5        30.03S WCI  26
EAGLE          MOCLDY    16  16 100 CALM      30.08S
RIFLE          LGT SNOW  29  26  89 CALM      30.03F FOG
DELTA          LGT SNOW  34  31  91 NW5       30.03S WCI  30
NUCLA          CLOUDY    32  28  86 CALM      30.03S
$$

COZ017>023-064>068-171400-
...SOUTHWEST COLORADO...

CITY           SKY/WX    TMP DP  RH WIND       PRES   REMARKS
DURANGO        CLOUDY    30  26  85 E6        29.98S WCI  24
CORTEZ         MOCLDY    30  27  88 S3        29.97S
PAGOSA SPRINGS CLOUDY    28  23  79 S3        30.00S
TELLURIDE      NOT AVBL
WOLF CREEK PAS CLOUDY    18  12  79 MISG      30.02S
$$

COZ009-010-012-014-032>034-037-058>063-171400-
...CENTRAL COLORADO...

CITY           SKY/WX    TMP DP  RH WIND       PRES   REMARKS
ASPEN          CLOUDY    23  19  85 S3        29.99F
BUENA VISTA    MOCLDY    19  12  76 CALM      30.02R
COPPER MTN     MOCLDY    21  12  68 S10G17    30.01S WCI  10
BERTHOUD PASS  FLURRIES  12   9  85 MISG      30.01R
COTTONWOOD PAS MOCLDY    27  16  63 CALM      30.00S
GUNNISON       MOCLDY    10  10 100 CALM      30.08S
KREMMLING      LGT SNOW N/A N/A N/A CALM      30.06S
LEADVILLE      CLOUDY    11   8  88 E3        29.99S
MONARCH PASS   MOCLDY    16  12  86 MISG      30.10S
SALIDA         MOCLDY    26  15  64 W3        30.09S
SUNLIGHT       LGT SNOW  23  21  93 CALM      30.02S
WILKERSON PASS CLOUDY    19  14  79 W5        30.04F WCI  13
$$

COZ069>075-171400-
...SAN LUIS VALLEY/SANGRE DE CRISTO MOUNTAINS...

CITY           SKY/WX    TMP DP  RH WIND       PRES   REMARKS
ALAMOSA        MOCLDY    15  12  88 W5        30.01F WCI   8
LA VETA PASS   MOCLDY    21  14  73 S3        30.01S
SAGUACHE       CLOUDY    21  12  68 N7        30.03S WCI  13
$$

COZ035-036-038>040-171400-
...NORTHERN COLORADO FRONT RANGE...

CITY           SKY/WX    TMP DP  RH WIND       PRES   REMARKS
DENVER INTL AP CLOUDY    20  16  84 SE6       29.97R WCI  12
DMNS CITY PARK   N/A     22  18  85 E1        29.97S
AURORA         MOCLDY    20  16  85 SE6       29.96S WCI  12
FRONT RANGE AP CLOUDY    23  19  86 CALM      29.97S
ERIE MUNI ARPT   N/A     19  17  95 CALM      29.98R
BOULDER MUN AP CLOUDY    23  21  93 CALM      29.97R
CENTENNIAL     CLOUDY    24  18  77 SE5       29.95S WCI  18
BROOMFIELD     MOCLDY    25  21  86 CALM      29.96R
FORT COLLINS   CLOUDY    21  18  86 E5        29.98F WCI  15
LONGMONT       CLOUDY    22  19  89 CALM      30.00R
$$

COZ041-046-047-076>085-087-088-171400-
...PIKES PEAK/PALMER DIVIDE AND SOUTHERN FOOTHILLS...

CITY           SKY/WX    TMP DP  RH WIND       PRES   REMARKS
COLO. SPRINGS  CLOUDY    28  17  63 CALM      29.96S
A. F. ACADEMY  CLOUDY    28  17  64 N3        29.95R
ELLICOTT       NOT AVBL
FALCON         CLOUDY    34  20  56 N7        29.97S WCI  28
FORT CARSON    CLOUDY    22  17  80 NW9       29.94F WCI  12
LIMON          CLOUDY    15  12  88 NW5       29.97S WCI   8
MONUMENT HILL  CLOUDY    27  18  69 W6        29.95S WCI  20
TRINIDAD       MOCLDY    28  21  75 S5        29.96F WCI  23
$$

COZ042>045-048>051-090-091-171400-
...NORTHEAST COLORADO...

CITY           SKY/WX    TMP DP  RH WIND       PRES   REMARKS
GREELEY ARPT   MOCLDY    18  10  73 CALM      29.99R
AKRON          FOG       17  16  95 S7        30.00F VSB 1/2 WCI   8
BURLINGTON     FOG       22  20  92 SE9       30.03S VSB 1/2 WCI  12
WRAY           CLOUDY    24  24 100 E6        30.08F WCI  16
STERLING       CLOUDY    21  21 100 S9        30.03F FOG     WCI  11
HOLYOKE        NOT AVBL
FORT MORGAN    PTCLDY    11   9  89 NE5       30.00F WCI   3
$$

COZ086-089-092>099-171400-
...SOUTHEAST COLORADO...

CITY           SKY/WX    TMP DP  RH WIND       PRES   REMARKS
PUEBLO         NOT AVBL
LA JUNTA       CLOUDY    25  21  85 N5        30.01S WCI  19
LAMAR          CLOUDY    26  24  92 NW8       30.00S WCI  18
SPRINGFIELD      N/A     24  22  91 NW3       29.98S
$$



USA.gov is the U.S. government's official web portal to all federal, state and local government web resources and services.